Location: Forst
(46.9333°N, 15.4333°E)
Time: 05:29:00
(UTC+00:00)

H-2A R/B - Pass Details

Date: 01 December 2020
Orbit: 733 x 836 km, 98.2° (Epoch: 18 January)

Event Time Altitude Azimuth Distance (km) Brightness Sun altitude
Exits shadow 15:54:49 - 81° (E) 2,533 4.1 -7.4°
Reaches altitude 10° 15:56:07 10° 68° (ENE) 2,347 3.8 -7.6°
Maximum altitude 15:57:21 11° 54° (NE) 2,281 3.8 -7.8°
Drops below altitude 10° 15:58:35 10° 39° (NE) 2,334 4.0 -8.0°
Sets 16:02:52 0° 5° (N) 3,239 5.0 -8.6°
